Meath Environmental Platform

Observations for Trim Market St

Time AQI Temp °C Hum % Pres Pa CO μg/m³ H₂S μg/m³ NO μg/m³ NO₂ μg/m³ O₃ μg/m³ SO₂ μg/m³ PM1 μg/m³ PM2.5 μg/m³ PM10 μg/m³
Friday 21 August 2026
17:58 3 22.3 50 61,960 0.02 0 1.47 15.55 57.5 0 0 1.93 2.13
17:57 3 22.3 50 61,980 0 0 1.34 12.24 58.12 0 0 1.94 2.13
17:56 3 22.3 50 61,937 0.09 0 1.2 11.28 61.19 0 0 1.94 2.13
17:55 3 22.3 50 61,899 0 0 1.14 12.46 58.68 0 0 2.45 2.7
17:54 3 22.3 50 62,015 0 0 1.12 15.12 60.69 0 0 2.46 2.7
17:53 3 22.4 50 62,353 0.02 0 1.22 13.41 60.6 0 0 1.95 2.14
17:52 3 22.4 50 62,596 0.04 0 1.24 12.3 59.69 0 0 1.96 2.15
17:51 3 22.4 50 62,800 0.14 0 1.23 13.04 60.31 0 0 1.96 2.15
17:50 3 22.5 49 62,991 0.24 0 1.33 26.4 59.04 0 0 2.48 2.73
17:49 3 22.6 49 63,197 0.08 0 1.5 15.52 57.48 0 0 1.97 2.28
17:48 3 22.6 49 63,248 0.11 0 1.21 14.96 57.4 0 0 1.97 2.16
17:47 3 22.6 49 63,347 0.07 0 1.23 13.91 58.09 0 0 1.96 2.16
17:45 3 22.7 49 63,408 0.2 0 1.21 12.58 57.39 0 0 2.48 2.73
17:44 3 22.8 50 63,378 0.16 0 1.21 18.97 56.43 0 0 1.96 2.16
17:42 3 22.8 50 63,177 0.2 0 1.22 14.83 56.54 0 0 2.47 2.72
17:41 3 22.8 50 63,100 0.38 0 1.16 15.4 58.62 0 0 1.95 2.15
17:40 3 22.9 50 63,155 0.35 0 1.2 14.47 58.28 0 0 1.95 2.15
17:39 3 22.9 50 63,143 0.72 0 1.2 19.4 59.98 0 0 1.95 2.15
17:38 3 22.9 50 63,127 0.27 0 1.2 16.47 57.05 0 0 2.47 2.71
17:37 3 22.9 50 62,942 0.19 0 1.21 13.83 57.9 0 0 1.95 2.14